Piney Island, NC

2:56 AM EST on November 23, 2017 (GMT -0500)
Piney Island

Weather History for KNBT - May, 2014

Change the Weather History Date:

Sunday, May 11, 2014

  Actual Average (KMRH) Record (KMRH)
Temperature  
Mean Temperature 76 °F -  
Max Temperature 84 °F 75 °F 88 °F (1964)
Min Temperature 69 °F 54 °F 38 °F (1977)
Cooling Degree Days 10    
Growing Degree Days 26 (Base 50)    
Moisture  
Dew Point 69 °F    
Average Humidity 80    
Maximum Humidity 97    
Minimum Humidity 58    
Precipitation  
Precipitation 0.00 in - - ()
Sea Level Pressure  
Sea Level Pressure 30.13 in    
Wind  
Wind Speed 10 mph (SW)    
Max Wind Speed 15 mph    
Max Gust Speed -    
Visibility 9 miles    
Events Rain    
Averages and records for this station are not official NWS values.
T = Trace of Precipitation, MM = Missing Value Source: NWS Daily Summary

Daily Weather History Graph

Daily Weather History Graph

Search for Another Location

Airport or City:

Trip Planner

Search our weather history database for the weather conditions in past years. The results will help you decide how hot, cold, wet, or windy it might be!

Date:

Astronomy

May. 11, 2014 Rise Set
Actual Time 6:05 AM EDT 7:59 PM EDT
Civil Twilight 5:37 AM EDT 8:27 PM EDT
Nautical Twilight 5:04 AM EDT 9:01 PM EDT
Astronomical Twilight 4:28 AM EDT 9:37 PM EDT
Moon 5:00 PM EDT (5/11) 4:01 AM EDT (5/11)
Length of Visible Light 14h 49m
Length of Day
13h 53m
Waxing Gibbous, 89% of the Moon is Illuminated
May 11
Waxing Gibbous
May 14
Full
May 21
Last Quarter
May 28
New
Jun 5
First Quarter

Hourly Weather History & Observations

Time (EDT) Temp. Heat Index Dew Point Humidity Pressure Visibility Wind Dir Wind Speed Gust Speed Precip Events Conditions
12:56 AM 75.0 °F - 68.0 °F 79% 30.10 in 10.0 mi SSW 11.5 mph - N/A   Clear
1:56 AM 75.0 °F - 68.0 °F 79% 30.10 in 10.0 mi SSW 11.5 mph - N/A   Clear
2:56 AM 73.9 °F - 66.9 °F 79% 30.10 in 10.0 mi SW 10.4 mph - N/A   Clear
3:56 AM 73.0 °F - 66.9 °F 81% 30.10 in 10.0 mi SW 10.4 mph - N/A   Clear
4:56 AM 70.0 °F - 66.0 °F 87% 30.10 in 10.0 mi SSW 8.1 mph - N/A   Clear
5:56 AM 69.1 °F - 66.0 °F 90% 30.10 in 10.0 mi SSW 6.9 mph - N/A   Clear
6:56 AM 72.0 °F - 68.0 °F 87% 30.12 in 8.0 mi SSW 8.1 mph - N/A   Clear
7:56 AM 73.9 °F - 70.0 °F 87% 30.13 in 9.0 mi SW 11.5 mph - N/A   Clear
8:56 AM 78.1 °F - 69.1 °F 74% 30.15 in 10.0 mi WSW 13.8 mph - N/A   Clear
9:56 AM 80.1 °F 82.7 °F 68.0 °F 67% 30.15 in 10.0 mi West 15.0 mph - N/A   Clear
10:56 AM 81.0 °F 83.3 °F 66.9 °F 62% 30.15 in 10.0 mi West 12.7 mph - N/A   Mostly Cloudy
11:56 AM 81.0 °F 84.1 °F 69.1 °F 67% 30.15 in 10.0 mi West 9.2 mph - N/A   Mostly Cloudy
12:56 PM 82.0 °F 84.1 °F 66.0 °F 58% 30.14 in 10.0 mi SW 5.8 mph - N/A   Mostly Cloudy
1:56 PM 82.9 °F 86.5 °F 69.1 °F 63% 30.13 in 10.0 mi Variable 3.5 mph - N/A   Mostly Cloudy
2:56 PM 78.1 °F - 72.0 °F 81% 30.13 in 8.0 mi South 5.8 mph - N/A Rain Light Rain
3:56 PM 81.0 °F 84.4 °F 70.0 °F 69% 30.12 in 10.0 mi WSW 8.1 mph - N/A   Partly Cloudy
4:56 PM 82.0 °F 86.7 °F 72.0 °F 71% 30.12 in 10.0 mi SSW 12.7 mph - N/A   Clear
5:56 PM 81.0 °F 84.4 °F 70.0 °F 69% 30.12 in 10.0 mi SSW 13.8 mph - N/A   Clear
6:56 PM 77.0 °F - 70.0 °F 79% 30.12 in 9.0 mi SSW 12.7 mph - N/A   Clear
7:56 PM 75.0 °F - 71.1 °F 87% 30.12 in 9.0 mi SW 9.2 mph - N/A   Clear
8:56 PM 75.0 °F - 71.1 °F 87% 30.13 in 9.0 mi SSW 8.1 mph - N/A   Partly Cloudy
9:56 PM 73.9 °F - 72.0 °F 93% 30.14 in 8.0 mi SSW 6.9 mph - N/A   Clear
10:56 PM 73.0 °F - 71.1 °F 93% 30.16 in 7.0 mi SSE 3.5 mph - N/A   Clear
11:29 PM 73.0 °F - 71.1 °F 93% 30.15 in 6.0 mi Calm Calm - N/A   Scattered Clouds
11:40 PM 73.0 °F - 71.1 °F 93% 30.15 in 6.0 mi SSW 5.8 mph - N/A   Mostly Cloudy
11:56 PM 72.0 °F - 71.1 °F 97% 30.16 in 5.0 mi SSW 4.6 mph - N/A   Scattered Clouds